Regional Weather Roundup
Issued by NWS

Home | Current Version | Previous Version | Text Only | Print | Product List | Glossary On
Versions: 1 2 3 4 5 6 7 8 9 10 11 12 13 14 15 16 17 18 19 20 21 22 23 24 25 26 27 28 29 30 31 32 33 34 35 36 37 38 39 40 41 42 43 44 45 46 47 48 49 50
000
ASUS45 KREV 270310
RWRNV
NEVADA REGIONAL WEATHER ROUNDUP
NATIONAL WEATHER SERVICE RENO NV
700 PM PST WED NOV 26 2014

NOTE: "FAIR" INDICATES FEW OR NO CLOUDS BELOW 12,000 FEET WITH NO
SIGNIFICANT WEATHER AND/OR OBSTRUCTIONS TO VISIBILITY.

NVZ001-003-004-270400-
WESTERN NEVADA

CITY           SKY/WX    TMP DP  RH WIND       PRES   REMARKS
RENO           MOCLDY    57  29  34 CALM      30.31F
CARSON CITY    FAIR      55  28  35 CALM      30.34R
MINDEN         FAIR      48  23  37 CALM      30.35
SLIDE MTN        N/A     41  19  42 W35         N/A
PYRAMID LAKE     N/A     52 N/A N/A SW3         N/A
FALLON         MOCLDY    42  22  44 NE3       30.30F
LOVELOCK       MOCLDY    44  24  45 CALM      30.29F
HAWTHORNE      CLEAR     48  23  37 CALM      30.33S
$$

NVZ002-CAZ072-073-270400-
NORTHERN AND CENTRAL SIERRA

CITY           SKY/WX    TMP DP  RH WIND       PRES   REMARKS
S. LAKE TAHOE  PTCLDY    43  32  65 CALM      30.41S
TRUCKEE        MOCLDY    45  25  45 CALM      30.39F
SQUAW VLY 8000 NOT AVBL
BLUE CANYON    PTCLDY    59  17  19 SE7       30.38S
MAMMOTH LAKES  FAIR      41  10  28 CALM      30.49R
BRIDGEPORT     FAIR      47  23  38 VRB3      30.43F
$$

NVZ030-031-036-270400-
NORTHERN NEVADA

CITY           SKY/WX    TMP DP  RH WIND       PRES   REMARKS
ELKO           PTCLDY    37  30  75 CALM      30.34F
WINNEMUCCA     PTCLDY    48  29  47 S8        30.29F
WENDOVER       CLEAR     41  30  65 CALM      30.33F
$$

NVZ035-037-270400-
CENTRAL NEVADA

CITY           SKY/WX    TMP DP  RH WIND       PRES   REMARKS
ELY            CLEAR     33  13  43 S10       30.45R
EUREKA           N/A     39  22  50 CALM      30.40S
$$

NVZ013-014-270400-
SOUTH CENTRAL NEVADA

CITY           SKY/WX    TMP DP  RH WIND       PRES   REMARKS
TONOPAH        CLEAR     42  14  32 N12       30.41R
$$

NVZ017-020-022-270400-
SOUTHERN NEVADA

CITY           SKY/WX    TMP DP  RH WIND       PRES   REMARKS
LAS VEGAS      CLEAR     59  19  21 SW6       30.26S
N. LAS VEGAS   CLEAR     55  22  27 NW6       30.29S
NELLIS AFB     CLEAR     51  13  22 NE7       30.29S
HENDERSON      CLEAR     52  19  27 SE8       30.32R
MERCURY        CLEAR     51  11  20 CALM      30.33R
$$



USA.gov is the U.S. government's official web portal to all federal, state and local government web resources and services.